Weather History for KRPJ - December, 2012

Change the Weather History Date:

Friday, December 7, 2012

  Actual Average (KRFD) Record (KRFD)
Temperature  
Mean Temperature 38 °F 28 °F  
Max Temperature 40 °F 36 °F 64 °F (1916)
Min Temperature 35 °F 20 °F -11 °F (1977)
Degree Days  
Heating Degree Days 27 37  
Month to date heating degree days 249  
Since 1 July heating degree days 1584  
Cooling Degree Days 0 0  
Month to date cooling degree days 0  
Year to date cooling degree days 820  
Moisture  
Dew Point 35 °F    
Average Humidity 86    
Maximum Humidity 99    
Minimum Humidity 76    
Precipitation  
Precipitation 0.04 in 0.07 in 1.10 in (1980)
Month to date precipitation 0.53  
Year to date precipitation 34.79  
Snow  
Snow 0.00 in 0.30 in 4.60 in (1969)
Month to date snowfall 2.1  
Since 1 July snowfall 3.9  
Snow Depth -    
Sea Level Pressure  
Sea Level Pressure 29.92 in    
Wind  
Wind Speed 7 mph (NE)    
Max Wind Speed 14 mph    
Max Gust Speed -    
Visibility 9 miles    
Events Rain    
T = Trace of Precipitation, MM = Missing Value Source: NWS Daily Summary

Daily Weather History Graph

Daily Weather History Graph

Search for Another Location

Airport or City:

Trip Planner

Search our weather history database for the weather conditions in past years. The results will help you decide how hot, cold, wet, or windy it might be!

Date:

Astronomy

Dec. 07, 2012 Rise Set
Actual Time 7:10 AM CST 4:25 PM CST
Civil Twilight 6:39 AM CST 4:56 PM CST
Nautical Twilight 6:04 AM CST 5:31 PM CST
Astronomical Twilight 5:30 AM CST 6:05 PM CST
Moon 12:24 AM CST (12/7) 12:26 PM CST (12/7)
Length of Visible Light 10h 17m
Length of Day
9h 14m
Last Quarter, 38% of the Moon is Illuminated
Dec 7
Last Quarter
Dec 13
New
Dec 19
First Quarter
Dec 28
Full
Jan 4
Last Quarter

Hourly Weather History & Observations

Time (CST) Temp. Windchill Dew Point Humidity Pressure Visibility Wind Dir Wind Speed Gust Speed Precip Events Conditions
3:55 AM 40.1 °F - 39.6 °F 98% 29.92 in 2.5 mi Calm Calm - N/A   Light Drizzle
4:15 AM 39.7 °F - 39.4 °F 99% 29.92 in 2.5 mi Calm Calm - N/A   Overcast
4:35 AM 39.7 °F - 39.6 °F 99% 29.93 in 2.0 mi Calm Calm - N/A   Overcast
4:55 AM 39.9 °F 37.8 °F 39.6 °F 99% 29.93 in 2.5 mi NNW 3.5 mph - N/A   Overcast
5:15 AM 39.7 °F 34.9 °F 39.4 °F 99% 29.94 in 7.0 mi North 6.9 mph - N/A   Overcast
5:35 AM 39.6 °F 35.4 °F 37.8 °F 93% 29.94 in 7.0 mi North 5.8 mph - N/A   Overcast
5:55 AM 39.4 °F 34.5 °F 37.4 °F 93% 29.95 in 10.0 mi North 6.9 mph - N/A   Overcast
6:15 AM 39.4 °F 33.8 °F 36.9 °F 91% 29.95 in 10.0 mi North 8.1 mph - N/A   Overcast
6:35 AM 39.2 °F 33.6 °F 36.1 °F 89% 29.96 in 10.0 mi NNE 8.1 mph - N/A   Overcast
6:55 AM 38.8 °F 33.8 °F 36.0 °F 89% 29.95 in 10.0 mi NNE 6.9 mph - N/A   Overcast
7:15 AM 38.7 °F 32.9 °F 35.8 °F 89% 29.95 in 10.0 mi NNE 8.1 mph - N/A   Overcast
7:35 AM 38.5 °F 32.7 °F 35.6 °F 89% 29.95 in 10.0 mi NNE 8.1 mph - N/A   Overcast
7:55 AM 38.3 °F 31.9 °F 35.8 °F 91% 29.96 in 7.0 mi NNE 9.2 mph - N/A   Overcast
8:15 AM 38.3 °F 31.9 °F 35.6 °F 90% 29.95 in 7.0 mi NE 9.2 mph - N/A   Mostly Cloudy
8:35 AM 38.3 °F 32.5 °F 35.6 °F 90% 29.96 in 7.0 mi NNE 8.1 mph - N/A   Scattered Clouds
8:55 AM 38.3 °F 31.4 °F 35.4 °F 89% 29.95 in 10.0 mi NE 10.4 mph - N/A   Mostly Cloudy
9:15 AM 38.8 °F 32.1 °F 34.7 °F 85% 29.96 in 10.0 mi NE 10.4 mph - N/A   Mostly Cloudy
9:35 AM 38.7 °F 30.9 °F 34.2 °F 84% 29.95 in 10.0 mi NE 12.7 mph - N/A   Mostly Cloudy
9:55 AM 39.2 °F 31.2 °F 34.7 °F 84% 29.96 in 10.0 mi NE 13.8 mph - N/A   Scattered Clouds
10:15 AM 40.1 °F 33.2 °F 34.7 °F 81% 29.95 in 10.0 mi NE 11.5 mph - N/A   Mostly Cloudy
10:35 AM 39.9 °F 32.9 °F 34.3 °F 80% 29.94 in 10.0 mi NE 11.5 mph - N/A   Mostly Cloudy
10:55 AM 40.1 °F 34.1 °F 34.5 °F 80% 29.93 in 10.0 mi ENE 9.2 mph - N/A   Overcast
11:15 AM 40.5 °F 35.1 °F 34.7 °F 80% 29.93 in 10.0 mi NE 8.1 mph - N/A   Overcast
11:35 AM 40.3 °F 35.5 °F 34.7 °F 80% 29.93 in 10.0 mi NNE 6.9 mph - N/A   Overcast
11:55 AM 40.3 °F 34.9 °F 34.7 °F 80% 29.93 in 10.0 mi NNE 8.1 mph - N/A   Overcast
12:15 PM 40.3 °F 35.5 °F 34.7 °F 80% 29.94 in 10.0 mi North 6.9 mph - N/A   Mostly Cloudy
12:35 PM 40.1 °F 34.1 °F 34.2 °F 79% 29.93 in 10.0 mi NNE 9.2 mph - N/A   Scattered Clouds
12:55 PM 40.1 °F 33.6 °F 33.6 °F 78% 29.92 in 10.0 mi North 10.4 mph - N/A   Mostly Cloudy
1:15 PM 40.1 °F 34.1 °F 33.3 °F 77% 29.92 in 10.0 mi NNE 9.2 mph - N/A   Overcast
1:35 PM 40.1 °F 34.1 °F 33.1 °F 76% 29.91 in 10.0 mi NNE 9.2 mph - N/A   Mostly Cloudy
1:55 PM 40.1 °F 33.6 °F 33.1 °F 76% 29.90 in 10.0 mi NE 10.4 mph - N/A   Overcast
2:15 PM 40.1 °F 34.1 °F 33.1 °F 76% 29.90 in 10.0 mi NE 9.2 mph - N/A   Overcast
2:35 PM 40.1 °F 33.6 °F 33.3 °F 77% 29.90 in 10.0 mi NE 10.4 mph - N/A   Overcast
2:55 PM 40.3 °F 33.9 °F 33.3 °F 76% 29.90 in 10.0 mi NE 10.4 mph - N/A   Overcast
3:15 PM 40.3 °F 34.4 °F 34.3 °F 79% 29.90 in 10.0 mi ENE 9.2 mph - N/A   Overcast
3:35 PM 40.3 °F 34.4 °F 34.7 °F 80% 29.90 in 10.0 mi ENE 9.2 mph - N/A   Overcast
3:55 PM 40.3 °F 34.4 °F 34.7 °F 80% 29.90 in 10.0 mi NE 9.2 mph - N/A   Overcast
4:15 PM 40.1 °F 34.1 °F 34.9 °F 82% 29.90 in 10.0 mi ENE 9.2 mph - N/A   Overcast
4:35 PM 40.1 °F 34.7 °F 35.1 °F 82% 29.90 in 10.0 mi ENE 8.1 mph - N/A   Overcast
4:55 PM 40.1 °F 34.7 °F 34.7 °F 81% 29.90 in 10.0 mi ENE 8.1 mph - N/A   Overcast
5:15 PM 39.7 °F 34.3 °F 35.2 °F 84% 29.90 in 10.0 mi ENE 8.1 mph - N/A   Overcast
5:35 PM 39.6 °F 34.0 °F 35.4 °F 85% 29.90 in 10.0 mi ENE 8.1 mph - N/A   Overcast
5:55 PM 39.7 °F 34.9 °F 35.2 °F 84% 29.90 in 10.0 mi ENE 6.9 mph - N/A   Overcast
6:15 PM 39.7 °F 34.9 °F 35.6 °F 85% 29.89 in 10.0 mi ENE 6.9 mph - N/A   Overcast
6:35 PM 39.4 °F 34.5 °F 35.8 °F 87% 29.90 in 10.0 mi ENE 6.9 mph - N/A   Overcast
6:55 PM 39.2 °F 33.0 °F 35.8 °F 88% 29.89 in 10.0 mi ENE 9.2 mph - N/A   Overcast
7:15 PM 39.2 °F 33.0 °F 35.1 °F 85% 29.89 in 10.0 mi NE 9.2 mph - N/A   Overcast
7:35 PM 39.2 °F 33.0 °F 35.2 °F 86% 29.90 in 10.0 mi ENE 9.2 mph - N/A   Overcast
7:55 PM 39.0 °F 32.3 °F 35.1 °F 86% 29.90 in 10.0 mi ENE 10.4 mph - N/A   Overcast
8:15 PM 38.7 °F 32.9 °F 35.1 °F 87% 29.90 in 10.0 mi NE 8.1 mph - N/A   Overcast
8:35 PM 38.7 °F 33.6 °F 35.1 °F 87% 29.91 in 10.0 mi NNE 6.9 mph - N/A   Overcast
8:55 PM 38.5 °F 32.1 °F 34.9 °F 87% 29.91 in 10.0 mi NNE 9.2 mph - N/A   Overcast
9:15 PM 38.3 °F 32.5 °F 34.9 °F 87% 29.91 in 10.0 mi NNE 8.1 mph - N/A   Overcast
9:35 PM 37.9 °F 31.5 °F 34.7 °F 88% 29.90 in 10.0 mi NNE 9.2 mph - N/A   Overcast
9:55 PM 37.8 °F 31.3 °F 34.7 °F 89% 29.90 in 10.0 mi NNE 9.2 mph - N/A   Overcast
10:15 PM 37.6 °F 31.6 °F 34.7 °F 89% 29.90 in 10.0 mi NNE 8.1 mph - N/A   Overcast
10:35 PM 37.4 °F 29.8 °F 34.5 °F 89% 29.90 in 10.0 mi NNE 11.5 mph - N/A   Overcast
10:55 PM 37.2 °F 30.0 °F 34.7 °F 91% 29.90 in 10.0 mi NNE 10.4 mph - 0.01 in Rain Light Rain
11:15 PM 36.7 °F 28.4 °F 34.7 °F 93% 29.91 in 7.0 mi NNE 12.7 mph - N/A Rain Light Rain
11:35 PM 36.1 °F 28.7 °F 34.0 °F 92% 29.91 in 7.0 mi NNE 10.4 mph - 0.01 in Rain Light Rain
11:55 PM 35.1 °F 27.4 °F 33.8 °F 95% 29.91 in 5.0 mi NNE 10.4 mph - 0.03 in Rain Rain